sat.trackr.live / text

‹ back to catalog

STARLINK-32461

NORAD 61701 · 2024-195Q

PAYLOAD ACTIVE UNKNOWN

§ Identity

Operator
Country
US
Launch date
2024-10-30
Launch site
AFWTR
Launch vehicle
Mass (kg)
RCS (m²)

Purposes: comms

External: N2YO · Heavens-Above · Gunter

§ Orbital elements

Epoch: 2026-05-25T00:54:17.574624Z

Period
93.85 min
Inclination
53.1603°
Eccentricity
0.0001169
Mean motion
15.34387609 rev/d
Perigee alt
461.9 km
Apogee alt
463.5 km
Semi-major
6,840.9 km
B*
2.1628e-5
RAAN
159.8155°
Arg perigee
84.9972°
Mean anomaly
275.1164°
Rev number
8,888

§ Raw data

STARLINK-324611 61701U 24195Q   26145.03770341  .00000354  00000+0  21628-4 0  99932 61701  53.1603 159.8155 0001169  84.9972 275.1164 15.34387609 88889

JSON: /api/v1/satellites/61701 · /tle

For live sub-satellite position, see the globe view (requires WebGL).

§ Visibility from observer

Set your observer location to see the next 7 days of passes ≥ 10°. The values pass through the URL so the page stays shareable.

No JS? Fill the form by hand. The geolocation button needs JavaScript.